Regional Weather Roundup
Issued by NWS

Home | Current Version | Previous Version | Graphics & Text | Print | Product List | Glossary On
Versions: 1 2 3 4 5 6 7 8 9 10 11 12 13 14 15 16 17 18 19 20 21 22 23 24 25 26 27 28 29 30 31 32 33 34 35 36 37 38 39 40 41 42 43 44 45 46 47 48 49 50
075
ASUS43 KMKX 230610
RWRWI

WISCONSIN REGIONAL WEATHER ROUNDUP
NATIONAL WEATHER SERVICE MILWAUKEE/SULLIVAN WI
1200 AM CST TUE JAN 23 2018

NOTE: "FAIR" INDICATES FEW OR NO CLOUDS BELOW 12,000 FEET WITH NO
SIGNIFICANT WEATHER AND/OR OBSTRUCTIONS TO VISIBILITY.

WIZ001-002-006>008-014>016-023>028-230700-
NORTHWEST WISCONSIN

CITY           SKY/WX    TMP DP  RH WIND       PRES   REMARKS
SUPERIOR ARPT  CLOUDY    19  12  74 N9        29.90S WCI   8
6HR MIN TEMP:  19; 6HR MAX TEMP:  27;

ASHLAND        CLOUDY    20  17  88 N17       29.85S WCI   5
6HR MIN TEMP:  20; 6HR MAX TEMP:  24; 6HR PCP:  0.05;

HAYWARD        CLOUDY    22  17  81 N15G28    29.80R WCI   9
6HR MIN TEMP:  22; 6HR MAX TEMP:  25; 6HR PCP: TRACE;

SIREN          CLOUDY    24  17  74 N10G23    29.83F WCI  13
6HR MIN TEMP:  24; 6HR MAX TEMP:  27;

CUMBERLAND     CLOUDY    25  19  80 N15G24    29.77R WCI  12
RICE LAKE        N/A     24  22  91 N15G21    29.78S WCI  12
6HR MIN TEMP:  24; 6HR MAX TEMP:  27;

CHETEK         LGT SNOW  24  22  91 N8        29.76S WCI  15
6HR MIN TEMP:  24; 6HR MAX TEMP:  28; 6HR PCP:  0.02;

LADYSMITH      CLOUDY    24  21  87 N14       29.74S WCI  12
6HR MIN TEMP:  24; 6HR MAX TEMP:  28;

EAU CLAIRE     LGT SNOW  24  21  88 N15G26    29.71S FOG     WCI  11
6HR MIN TEMP:  24; 6HR MAX TEMP:  30; 6HR PCP:  0.03;

MENOMONIE      LGT SNOW  26  23  91 N15       29.75R WCI  13
6HR MIN TEMP:  26; 6HR MAX TEMP:  31;

NEW RICHMOND     N/A     25  21  85 N17       29.79S WCI  11
6HR MIN TEMP:  25; 6HR MAX TEMP:  26;

OSCEOLA        CLOUDY    25  19  78 N13G21    29.84S WCI  14
6HR MIN TEMP:  25; 6HR MAX TEMP:  28;

$$

WIZ003>005-009-010-017-018-230700-
NORTH CENTRAL WISCONSIN

CITY           SKY/WX    TMP DP  RH WIND       PRES   REMARKS
MANITOWISH WTR LGT SNOW  20  19  96 N9        29.70S WCI  10
6HR MIN TEMP:  20; 6HR MAX TEMP:  24; 6HR PCP:  0.05;

ARBOR VITAE    LGT SNOW  22  20  91 N12       29.67S WCI  11
6HR MIN TEMP:  22; 6HR MAX TEMP:  27; 6HR PCP:  0.06;

WOODRUFF       LGT SNOW  22  20  91 N12       29.67S WCI  11
6HR MIN TEMP:  22; 6HR MAX TEMP:  27; 6HR PCP:  0.06;

RHINELANDER    LGT SNOW  23  19  85 N10G18    29.63F FOG     WCI  12
6HR MIN TEMP:  23; 6HR MAX TEMP:  28; 6HR PCP:  0.05;

EAGLE RIVER      N/A     21  19  92 N10G17    29.65S WCI  10
6HR MIN TEMP:  21; 6HR MAX TEMP:  26;

LAND O LAKES     N/A     22  19  89 N12       29.68S WCI  10
6HR MIN TEMP:  22; 6HR MAX TEMP:  25;

PHILLIPS       CLOUDY    22  19  87 N16G23    29.69S WCI   8
6HR MIN TEMP:  22; 6HR MAX TEMP:  25; 6HR PCP:  0.01;

TOMAHAWK       LGT SNOW  23  19  87 N9G20     29.65S WCI  13
6HR MIN TEMP:  23; 6HR MAX TEMP:  28;

MEDFORD        LGT SNOW  23  20  89 N13       29.63R WCI  12
6HR MIN TEMP:  23; 6HR MAX TEMP:  29;

MERRILL        LGT SNOW  24  22  89 N15G21    29.62S WCI  12
6HR MIN TEMP:  24; 6HR MAX TEMP:  31;

$$

WIZ029-030-035-036-043>047-230700-
CENTRAL WISCONSIN

CITY           SKY/WX    TMP DP  RH WIND       PRES   REMARKS
WAUSAU         CLOUDY    26  22  84 N14G22    29.58S WCI  14
6HR MIN TEMP:  26; 6HR MAX TEMP:  30; 6HR PCP:  0.02;

MOSINEE        LGT SNOW  27  27 100 N17       29.60R WCI  14
MARSHFIELD     CLOUDY    26  22  84 N10       29.60R WCI  16
6HR MIN TEMP:  26; 6HR MAX TEMP:  32; 6HR PCP: TRACE;

STEVENS POINT  CLOUDY    27  25  91 N10       29.59S WCI  17
6HR MIN TEMP:  27; 6HR MAX TEMP:  29;

WAUPACA        CLOUDY    32  27  80 N9G17     29.57S WCI  24
6HR MIN TEMP:  32; 6HR MAX TEMP:  32;

WAUTOMA        FLURRIES  30  27  88 N13         N/A  WCI  20
6HR MIN TEMP:  30; 6HR MAX TEMP:  31;

WISC RAPIDS    NOT AVBL
CAMP DOUGLAS   CLOUDY    30  30 100 N10       29.59S WCI  21
6HR MIN TEMP:  30; 6HR MAX TEMP:  33; 6HR PCP: TRACE;

$$

WIZ011>013-019>022-031-037>040-048>050-230700-
NORTHEAST WISCONSIN

CITY           SKY/WX    TMP DP  RH WIND       PRES   REMARKS
ANTIGO         CLOUDY    25  22  90 N17G24    29.56F WCI  11
6HR MIN TEMP:  25; 6HR MAX TEMP:  28;

SHAWANO        CLOUDY    31  27  85 N10       29.56S WCI  22
6HR MIN TEMP:  31; 6HR MAX TEMP:  32;

OCONTO         CLOUDY    28  26  92 N9        29.55F WCI  19
6HR MIN TEMP:  28; 6HR MAX TEMP:  30;

STURGEON BAY   MIX PCPN  27  26  96 N22       29.52F FOG     WCI  13
6HR MIN TEMP:  27; 6HR MAX TEMP:  32; 6HR PCP: TRACE;

GREEN BAY      CLOUDY    30  27  88 N22G28    29.53F WCI  17
6HR MIN TEMP:  30; 6HR MAX TEMP:  32;

MANITOWOC      MIX PCPN  31  30  96 N13       29.49S WCI  21
6HR MIN TEMP:  31; 6HR MAX TEMP:  35; 6HR PCP: TRACE;

APPLETON       CLOUDY    30  30 100 N18G24    29.52R WCI  18
CLINTONVILLE   CLOUDY    30  25  80 NE13G18   29.56S WCI  20
OSHKOSH        CLOUDY    30  28  92 N21       29.52R WCI  17
6HR MIN TEMP:  30; 6HR MAX TEMP:  33;

$$

WIZ032>034-041-042-053>061-230700-
SOUTHWEST WISCONSIN

CITY           SKY/WX    TMP DP  RH WIND       PRES   REMARKS
LA CROSSE      LGT SNOW  31  27  85 N15       29.65R FOG     WCI  20
6HR MIN TEMP:  31; 6HR MAX TEMP:  35; 6HR PCP:  0.01;

SPARTA         CLOUDY    30  27  90 N13G21    29.63S WCI  20
6HR MIN TEMP:  30; 6HR MAX TEMP:  32; 6HR PCP:  0.03;

VIROQUA        CLOUDY    31  31 100 N13G18    29.57S WCI  21
6HR MIN TEMP:  31; 6HR MAX TEMP:  32;

BOSCOBEL       CLOUDY    34  50 100 N9        29.58R WCI  27
6HR MIN TEMP:  34; 6HR MAX TEMP:  37;

PRAIRIE DU CHI MIX PCPN  33  31  92 N6        29.59R WCI  28
6HR MIN TEMP:  33; 6HR MAX TEMP:  37;

PLATTEVILLE    CLOUDY    33  33 100 N14       29.53R WCI  23
6HR MIN TEMP:  33; 6HR MAX TEMP:  37;

$$

WIZ056-057-062-063-064-067-068-230700-
SOUTH CENTRAL WISCONSIN

CITY           SKY/WX    TMP DP  RH WIND       PRES   REMARKS
REEDSBURG      CLOUDY    30  30 100 N10       29.55S FOG     WCI  21
6HR MIN TEMP:  30; 6HR MAX TEMP:  32;

BARABOO/DELLS  LGT SNOW  30  29  96 N9        29.54F WCI  22
6HR MIN TEMP:  30; 6HR MAX TEMP:  32;

LONE ROCK      CLOUDY    33  30  88 N10       29.55S WCI  25
6HR MIN TEMP:  33; 6HR MAX TEMP:  36;

MINERAL POINT  CLOUDY    32  32 100 N16G22    29.52R FOG     WCI  21
MADISON        LGT SNOW  31  29  92 N14       29.52S FOG     WCI  21
6HR MIN TEMP:  31; 6HR MAX TEMP:  35; 6HR PCP:  0.09;

MIDDLETON      CLOUDY    32  32  99 N10G16    29.52S WCI  24
6HR MIN TEMP:  32; 6HR MAX TEMP:  36; 6HR PCP:  0.02;

WATERTOWN      LGT SNOW  31  31 100 N7        29.50S WCI  24
6HR MIN TEMP:  31; 6HR MAX TEMP:  35; 6HR PCP:  0.35;

MONROE         MIX PCPN  32  32 100 N8        29.50S WCI  25
JANESVILLE     LGT SNOW  34  34 100 NW5       29.49R WCI  30
$$

WIZ051-052-058>065-066-070>072-230700-
SOUTHEAST WISCONSIN

CITY           SKY/WX    TMP DP  RH WIND       PRES   REMARKS
MILWAUKEE      FLURRIES  35  34  96 NW6       29.46F WCI  30
6HR MIN TEMP:  35; 6HR MAX TEMP:  38; 6HR PCP:  0.13;

WAUKESHA       LGT SNOW  32  30  93 NW10      29.48S WCI  24
MILWAUKEE/TIMM LGT SNOW  32  30  93 W5        29.48F WCI  27
RACINE         CLOUDY    35  35 100 W5        29.48R WCI  31
6HR MIN TEMP:  35; 6HR MAX TEMP:  38; 6HR PCP:  0.04;

BURLINGTON     LGT SNOW  32  32  98 NW10      29.46F WCI  24
6HR MIN TEMP:  32; 6HR MAX TEMP:  40; 6HR PCP:  0.22;

KENOSHA        LGT RAIN  36  33  89 NW8       29.47R FOG     WCI  30
6HR MIN TEMP:  36; 6HR MAX TEMP:  44; 6HR PCP:  0.04;

FOND DU LAC    CLOUDY    31  28  89 N20G25    29.51F WCI  19
6HR MIN TEMP:  31; 6HR MAX TEMP:  34; 6HR PCP: TRACE;

SHEBOYGAN      CLOUDY    32  32 100 N10       29.45S WCI  24
6HR MIN TEMP:  32; 6HR MAX TEMP:  36; 6HR PCP:  0.18;

WEST BEND      LGT SNOW  32  32 100 N7        29.48R WCI  26
JUNEAU         LGT SNOW  30  29  98 N10       29.51R WCI  21
6HR MIN TEMP:  30; 6HR MAX TEMP:  33; 6HR PCP:  0.07;

$$

LSZ147-162-230700-
LAKE SUPERIOR

STATION/POSITION TIME  TEMP    WIND        PRES    WAVE
                       AIR SEA DIR/SP/G            HT/PER
                 (UTC) (F)     (DEG/KT/KT) (MB)    (FT/S)
DEVILS ISLAND    0600   21      40/ 17/ 19 1012.5R
SAXON HARBOR     0540   24      30/ 18/ 25 1010.2R
$$

LMZ867-665-643>646-230700-
LAKE MICHIGAN

STATION/POSITION TIME  TEMP    WIND        PRES    WAVE
                       AIR SEA DIR/SP/G            HT/PER
                 (UTC) (F)     (DEG/KT/KT) (MB)    (FT/S)
NORTHPORT PIER   0540



USA.gov is the U.S. government's official web portal to all federal, state and local government web resources and services.